sat.trackr.live / text

‹ back to catalog

COSMOS 2556

NORAD 52713 · 2022-054A

PAYLOAD ACTIVE UNKNOWN

§ Identity

Operator
Country
CIS
Launch date
2022-05-19
Launch site
PLMSC
Launch vehicle
Mass (kg)
RCS (m²)

External: N2YO · Heavens-Above · Gunter

§ Orbital elements

Epoch: 2026-09-20T22:36:55.838880Z

Period
94.33 min
Inclination
97.6384°
Eccentricity
0.0002283
Mean motion
15.26492418 rev/d
Perigee alt
484.7 km
Apogee alt
487.9 km
Semi-major
6,864.4 km
B*
6.5954e-5
RAAN
215.6864°
Arg perigee
97.4491°
Mean anomaly
262.7006°
Rev number
24,134

§ Raw data

COSMOS 25561 52713U 22054A   26263.94231295  .00001644  00000+0  65954-4 0  99922 52713  97.6384 215.6864 0002283  97.4491 262.7006 15.26492418241347

JSON: /api/v1/satellites/52713 · /tle

For live sub-satellite position, see the globe view (requires WebGL).

§ Visibility from observer

Set your observer location to see the next 7 days of passes ≥ 10°. The values pass through the URL so the page stays shareable.

No JS? Fill the form by hand. The geolocation button needs JavaScript.